| time (UTC) | temp C | wind direction | speed KPH | gust KPH | rain 1hr cm | rain 24hr cm | rain mn cm | humidity % | barometer mb |
| 20260507075929 | 17 | 355 | 0.0 | 3.2 | 0.00 | 0.25 | 0.05 | 100 | 1008.8 |
| 20260507075318 | 17 | 5 | 1.6 | 14.5 | 0.00 | 0.25 | 0.05 | 100 | 1008.6 |
| 20260507074740 | 17 | 5 | 1.6 | 6.4 | 0.00 | 0.25 | 0.05 | 100 | 1008.6 |
| 20260507074252 | 17 | 304 | 1.6 | 16.1 | 0.00 | 0.25 | 0.05 | 100 | 1008.7 |
| 20260507073654 | 17 | 24 | 1.6 | 8.0 | 0.00 | 0.25 | 0.05 | 100 | 1008.8 |
| 20260507073124 | 17 | 248 | 3.2 | 14.5 | 0.00 | 0.25 | 0.05 | 100 | 1008.7 |
| 20260507072745 | 17 | 11 | 1.6 | 6.4 | 0.00 | 0.25 | 0.05 | 100 | 1008.4 |
| 20260507072214 | 17 | 355 | 1.6 | 14.5 | 0.00 | 0.25 | 0.05 | 100 | 1008.0 |
| 20260507071409 | 17 | 225 | 0.0 | 9.7 | 0.00 | 0.25 | 0.05 | 100 | 1007.9 |
| 20260507071305 | 17 | 251 | 0.0 | 8.0 | 0.03 | 0.25 | 0.05 | 100 | 1007.7 |
| 20260507070446 | 17 | 228 | 0.0 | 11.3 | 0.03 | 0.25 | 0.05 | 100 | 1007.6 |
| 20260507070115 | 17 | 321 | 1.6 | 6.4 | 0.03 | 0.25 | 0.05 | 100 | 1007.4 |
| 20260507065054 | 17 | 336 | 1.6 | 9.7 | 0.03 | 0.25 | 0.05 | 100 | 1007.4 |
| 20260507064521 | 17 | 176 | 1.6 | 12.9 | 0.03 | 0.25 | 0.05 | 100 | 1007.2 |
| 20260507063927 | 17 | 20 | 1.6 | 12.9 | 0.03 | 0.25 | 0.05 | 100 | 1007.2 |
| 20260507063334 | 17 | 355 | 1.6 | 14.5 | 0.05 | 0.25 | 0.05 | 100 | 1007.1 |
| 20260507062826 | 18 | 144 | 1.6 | 14.5 | 0.05 | 0.25 | 0.05 | 100 | 1007.0 |
| 20260507062313 | 18 | 0 | 0.0 | 12.9 | 0.05 | 0.25 | 0.05 | 100 | 1007.3 |
| 20260507061657 | 18 | 319 | 0.0 | 12.9 | 0.05 | 0.25 | 0.05 | 100 | 1007.5 |
| 20260507061356 | 18 | 346 | 0.0 | 9.7 | 0.03 | 0.23 | 0.03 | 100 | 1007.7 |
| 20260507060543 | 19 | 347 | 0.0 | 11.3 | 0.03 | 0.23 | 0.03 | 100 | 1007.8 |
| 20260507060026 | 20 | 355 | 0.0 | 11.3 | 0.03 | 0.23 | 0.03 | 100 | 1007.8 |
| 20260507055342 | 20 | 178 | 1.6 | 9.7 | 0.03 | 0.23 | 0.03 | 100 | 1007.7 |
| 20260507054728 | 20 | 85 | 0.0 | 6.4 | 0.03 | 0.23 | 0.03 | 100 | 1007.7 |
| 20260507054148 | 20 | 339 | 0.0 | 9.7 | 0.03 | 0.23 | 0.03 | 100 | 1007.8 |
| 20260507053629 | 20 | 265 | 0.0 | 9.7 | 0.00 | 0.20 | 0.00 | 100 | 1007.9 |
| 20260507053330 | 21 | 320 | 0.0 | 9.7 | 0.00 | 0.20 | 0.00 | 100 | 1007.8 |
| 20260507053125 | 21 | 320 | 0.0 | 9.7 | 0.00 | 0.20 | 0.00 | 100 | 1007.8 |
| 20260507052927 | 21 | 155 | 1.6 | 9.7 | 0.00 | 0.20 | 0.00 | 100 | 1007.8 |
| 20260507052702 | 21 | 155 | 1.6 | 9.7 | 0.00 | 0.20 | 0.00 | 100 | 1007.8 |
| 20260507051827 | 21 | 257 | 0.0 | 8.0 | 0.00 | 0.20 | 0.00 | 100 | 1007.8 |
| 20260507051245 | 20 | 273 | 0.0 | 3.2 | 0.00 | 0.20 | 0.00 | 100 | 1007.7 |
| 20260507050722 | 20 | 273 | 0.0 | 0.0 | 0.00 | 0.20 | 0.00 | 100 | 1007.7 |
| 20260507050221 | 20 | 273 | 0.0 | 0.0 | 0.00 | 0.20 | 0.00 | 100 | 1007.7 |
| 20260507045528 | 20 | 273 | 0.0 | 0.0 | 0.00 | 0.20 | 0.00 | 100 | 1007.7 |
| 20260507045016 | 20 | 273 | 0.0 | 0.0 | 0.00 | 0.20 | 0.00 | 100 | 1007.8 |
| 20260507044430 | 20 | 273 | 0.0 | 0.0 | 0.00 | 0.20 | 0.00 | 100 | 1007.7 |
| 20260507043825 | 20 | 273 | 0.0 | 0.0 | 0.00 | 0.20 | 0.00 | 100 | 1007.8 |
| 20260507043549 | 20 | 273 | 0.0 | 0.0 | 0.00 | 0.20 | 0.00 | 100 | 1007.7 |
| 20260507042714 | 20 | 273 | 0.0 | 0.0 | 0.00 | 0.20 | 0.00 | 100 | 1007.7 |
| 20260507042137 | 20 | 273 | 0.0 | 0.0 | 0.00 | 0.20 | 0.00 | 100 | 1007.7 |
| 20260507041617 | 20 | 273 | 0.0 | 0.0 | 0.00 | 0.20 | 0.00 | 100 | 1007.6 |
| 20260507041006 | 20 | 273 | 0.0 | 0.0 | 0.00 | 0.20 | 0.00 | 100 | 1007.6 |
| 20260507040436 | 20 | 273 | 0.0 | 0.0 | 0.00 | 0.20 | 0.00 | 100 | 1007.5 |
| 20260507035850 | 20 | 273 | 0.0 | 1.6 | 0.00 | 0.20 | 0.20 | 100 | 1007.7 |
| 20260507035301 | 20 | 273 | 0.0 | 1.6 | 0.00 | 0.20 | 0.20 | 100 | 1007.8 |
| 20260507034727 | 20 | 273 | 0.0 | 0.0 | 0.00 | 0.20 | 0.20 | 100 | 1008.0 |
| 20260507034139 | 20 | 273 | 0.0 | 0.0 | 0.00 | 0.20 | 0.20 | 100 | 1007.9 |
| 20260507033629 | 20 | 273 | 0.0 | 0.0 | 0.00 | 0.20 | 0.20 | 100 | 1007.8 |
| 20260507033155 | 20 | 273 | 0.0 | 0.0 | 0.00 | 0.20 | 0.20 | 100 | 1007.6 |
| 20260507032751 | 20 | 273 | 0.0 | 0.0 | 0.00 | 0.20 | 0.20 | 100 | 1007.4 |
| 20260507032525 | 20 | 273 | 0.0 | 0.0 | 0.00 | 0.20 | 0.20 | 100 | 1007.4 |
| 20260507032338 | 20 | 273 | 0.0 | 0.0 | 0.00 | 0.20 | 0.20 | 100 | 1007.3 |
| 20260507031331 | 20 | 273 | 0.0 | 0.0 | 0.00 | 0.20 | 0.20 | 100 | 1007.3 |
| 20260507030732 | 20 | 273 | 0.0 | 0.0 | 0.00 | 0.20 | 0.20 | 100 | 1007.0 |
| 20260507030230 | 20 | 273 | 0.0 | 0.0 | 0.00 | 0.20 | 0.20 | 100 | 1006.8 |
| 20260507025604 | 20 | 273 | 0.0 | 0.0 | 0.00 | 0.20 | 0.20 | 100 | 1007.0 |
| 20260507025034 | 20 | 273 | 0.0 | 0.0 | 0.00 | 0.20 | 0.20 | 100 | 1007.1 |
| 20260507024508 | 20 | 273 | 0.0 | 0.0 | 0.00 | 0.20 | 0.20 | 100 | 1007.2 |
| 20260507023938 | 20 | 273 | 0.0 | 1.6 | 0.00 | 0.20 | 0.20 | 100 | 1007.3 |
| 20260507023425 | 20 | 273 | 0.0 | 1.6 | 0.00 | 0.20 | 0.20 | 100 | 1007.4 |
| 20260507022834 | 20 | 273 | 0.0 | 1.6 | 0.00 | 0.20 | 0.20 | 100 | 1007.6 |
| 20260507022547 | 20 | 273 | 0.0 | 1.6 | 0.00 | 0.20 | 0.20 | 100 | 1007.7 |
| 20260507021952 | 20 | 273 | 0.0 | 0.0 | 0.00 | 0.20 | 0.20 | 100 | 1007.8 |
| 20260507021442 | 20 | 273 | 0.0 | 1.6 | 0.00 | 0.20 | 0.20 | 100 | 1007.8 |
| 20260507021244 | 20 | 273 | 0.0 | 1.6 | 0.00 | 0.20 | 0.20 | 100 | 1007.8 |
| 20260507020607 | 20 | 273 | 0.0 | 0.0 | 0.00 | 0.20 | 0.20 | 100 | 1007.8 |
| 20260507020054 | 20 | 273 | 0.0 | 0.0 | 0.00 | 0.20 | 0.20 | 100 | 1007.6 |
| 20260507015513 | 20 | 273 | 0.0 | 0.0 | 0.00 | 0.20 | 0.20 | 100 | 1007.5 |
| 20260507014939 | 20 | 273 | 0.0 | 0.0 | 0.00 | 0.20 | 0.20 | 100 | 1007.5 |
| 20260507014417 | 20 | 273 | 0.0 | 0.0 | 0.00 | 0.20 | 0.20 | 100 | 1007.6 |
| 20260507013846 | 20 | 273 | 0.0 | 0.0 | 0.00 | 0.20 | 0.20 | 100 | 1007.7 |
| 20260507013319 | 20 | 273 | 0.0 | 0.0 | 0.00 | 0.20 | 0.20 | 100 | 1007.6 |
| 20260507013003 | 20 | 273 | 0.0 | 0.0 | 0.00 | 0.20 | 0.20 | 100 | 1007.6 |
| 20260507012152 | 20 | 273 | 0.0 | 0.0 | 0.00 | 0.20 | 0.20 | 100 | 1007.5 |
| 20260507011623 | 20 | 273 | 0.0 | 0.0 | 0.00 | 0.20 | 0.20 | 100 | 1007.7 |
| 20260507011044 | 20 | 273 | 0.0 | 3.2 | 0.00 | 0.20 | 0.20 | 100 | 1007.7 |
| 20260507010511 | 20 | 273 | 0.0 | 3.2 | 0.00 | 0.20 | 0.20 | 100 | 1007.4 |
| 20260507005931 | 20 | 273 | 0.0 | 0.0 | 0.00 | 0.20 | 0.20 | 100 | 1007.4 |
| 20260507005420 | 20 | 273 | 0.0 | 0.0 | 0.00 | 0.20 | 0.20 | 100 | 1007.4 |
| 20260507004919 | 20 | 273 | 0.0 | 1.6 | 0.00 | 0.20 | 0.20 | 100 | 1007.4 |
| 20260507004239 | 20 | 273 | 0.0 | 1.6 | 0.00 | 0.20 | 0.20 | 100 | 1007.4 |
| 20260507003655 | 20 | 273 | 0.0 | 3.2 | 0.00 | 0.20 | 0.20 | 100 | 1007.4 |
| 20260507003127 | 20 | 273 | 0.0 | 3.2 | 0.00 | 0.20 | 0.20 | 100 | 1007.5 |
| 20260507002534 | 20 | 273 | 0.0 | 0.0 | 0.00 | 0.20 | 0.20 | 100 | 1007.6 |
| 20260507002011 | 20 | 273 | 0.0 | 0.0 | 0.00 | 0.20 | 0.20 | 100 | 1007.3 |
| 20260507001452 | 20 | 273 | 0.0 | 0.0 | 0.00 | 0.20 | 0.20 | 100 | 1007.2 |
| 20260507000926 | 20 | 273 | 0.0 | 3.2 | 0.00 | 0.20 | 0.20 | 100 | 1007.2 |
| 20260507000423 | 20 | 273 | 0.0 | 3.2 | 0.00 | 0.20 | 0.20 | 100 | 1007.1 |
| 20260506235753 | 21 | 273 | 0.0 | 1.6 | 0.00 | 0.20 | 0.20 | 100 | 1007.1 |
| 20260506235223 | 21 | 273 | 0.0 | 1.6 | 0.00 | 0.20 | 0.20 | 100 | 1007.1 |
| 20260506234654 | 21 | 273 | 0.0 | 4.8 | 0.00 | 0.20 | 0.20 | 100 | 1007.1 |
| 20260506234343 | 21 | 273 | 0.0 | 4.8 | 0.00 | 0.20 | 0.20 | 100 | 1007.2 |
| 20260506233459 | 21 | 273 | 0.0 | 1.6 | 0.00 | 0.20 | 0.20 | 100 | 1007.1 |
| 20260506233025 | 21 | 273 | 0.0 | 3.2 | 0.00 | 0.20 | 0.20 | 100 | 1007.0 |
| 20260506232406 | 21 | 273 | 0.0 | 11.3 | 0.00 | 0.20 | 0.20 | 100 | 1006.9 |
| 20260506231837 | 21 | 273 | 1.6 | 11.3 | 0.00 | 0.20 | 0.20 | 100 | 1007.0 |
| 20260506231418 | 21 | 261 | 1.6 | 12.9 | 0.00 | 0.20 | 0.20 | 100 | 1006.9 |
| 20260506231214 | 21 | 297 | 1.6 | 12.9 | 0.00 | 0.20 | 0.20 | 100 | 1006.8 |
| 20260506230121 | 21 | 267 | 1.6 | 11.3 | 0.00 | 0.20 | 0.20 | 100 | 1006.8 |
| 20260506225738 | 21 | 275 | 1.6 | 11.3 | 0.00 | 0.20 | 0.20 | 100 | 1006.9 |
| 20260506224948 | 21 | 223 | 0.0 | 11.3 | 0.00 | 0.20 | 0.20 | 100 | 1006.8 |
| 20260506224403 | 21 | 242 | 0.0 | 11.3 | 0.00 | 0.20 | 0.20 | 100 | 1006.8 |
| 20260506223832 | 21 | 211 | 1.6 | 11.3 | 0.00 | 0.20 | 0.20 | 100 | 1006.9 |
| 20260506223311 | 21 | 264 | 1.6 | 12.9 | 0.00 | 0.20 | 0.20 | 100 | 1006.9 |
| 20260506222716 | 21 | 261 | 1.6 | 11.3 | 0.00 | 0.20 | 0.20 | 100 | 1006.9 |
| 20260506222127 | 21 | 184 | 0.0 | 11.3 | 0.00 | 0.20 | 0.20 | 1 | 1006.8 |
| 20260506221559 | 21 | 193 | 1.6 | 11.3 | 0.00 | 0.20 | 0.20 | 1 | 1006.9 |
| 20260506221035 | 21 | 280 | 1.6 | 16.1 | 0.00 | 0.20 | 0.20 | 2 | 1007.1 |
| 20260506221022 | 21 | 243 | 3.2 | 16.1 | 0.00 | 0.20 | 0.20 | 2 | 1007.1 |
| 20260506215846 | 21 | 271 | 3.2 | 16.1 | 0.00 | 0.20 | 0.20 | 2 | 1007.1 |
| 20260506215419 | 21 | 162 | 3.2 | 16.1 | 0.00 | 0.20 | 0.20 | 2 | 1007.0 |
| 20260506215319 | 21 | 238 | 1.6 | 16.1 | 0.00 | 0.20 | 0.20 | 2 | 1007.0 |
| 20260506215109 | 21 | 238 | 1.6 | 16.1 | 0.00 | 0.20 | 0.20 | 2 | 1007.0 |
| 20260506214458 | 21 | 252 | 3.2 | 16.1 | 0.00 | 0.20 | 0.20 | 1 | 1007.0 |
| 20260506214239 | 21 | 252 | 3.2 | 16.1 | 0.00 | 0.20 | 0.20 | 1 | 1007.0 |
| 20260506213930 | 21 | 238 | 3.2 | 22.5 | 0.00 | 0.20 | 0.20 | 1 | 1007.0 |
| 20260506213137 | 21 | 235 | 1.6 | 14.5 | 0.00 | 0.20 | 0.20 | 100 | 1006.9 |
| 20260506212856 | 21 | 254 | 1.6 | 9.7 | 0.00 | 0.20 | 0.20 | 100 | 1007.0 |
| 20260506211959 | 21 | 189 | 1.6 | 12.9 | 0.00 | 0.20 | 0.20 | 100 | 1006.9 |
| 20260506211449 | 21 | 258 | 1.6 | 12.9 | 0.00 | 0.20 | 0.20 | 100 | 1007.0 |
| 20260506210831 | 21 | 187 | 3.2 | 16.1 | 0.00 | 0.20 | 0.20 | 100 | 1007.0 |
| 20260506210305 | 20 | 262 | 1.6 | 16.1 | 0.00 | 0.20 | 0.20 | 100 | 1006.8 |
| 20260506205726 | 20 | 238 | 1.6 | 9.7 | 0.00 | 0.20 | 0.20 | 100 | 1007.0 |
| 20260506205144 | 20 | 217 | 1.6 | 14.5 | 0.00 | 0.20 | 0.20 | 100 | 1006.9 |
| 20260506204620 | 20 | 254 | 1.6 | 14.5 | 0.00 | 0.20 | 0.20 | 100 | 1007.0 |
| 20260506204057 | 20 | 265 | 1.6 | 11.3 | 0.00 | 0.20 | 0.20 | 100 | 1007.0 |
| 20260506203751 | 20 | 236 | 1.6 | 16.1 | 0.00 | 0.20 | 0.20 | 100 | 1007.0 |
| 20260506203219 | 20 | 160 | 1.6 | 11.3 | 0.00 | 0.20 | 0.20 | 100 | 1007.1 |
| 20260506202347 | 20 | 239 | 1.6 | 8.0 | 0.00 | 0.20 | 0.20 | 100 | 1007.1 |
| 20260506202036 | 20 | 257 | 1.6 | 16.1 | 0.00 | 0.20 | 0.20 | 100 | 1007.0 |
| 20260506201508 | 20 | 168 | 0.0 | 16.1 | 0.00 | 0.20 | 0.20 | 100 | 1007.0 |
| 20260506201247 | 20 | 168 | 0.0 | 16.1 | 0.00 | 0.20 | 0.20 | 100 | 1007.0 |
| 20260506200708 | 20 | 250 | 1.6 | 12.9 | 0.00 | 0.20 | 0.20 | 100 | 1007.0 |
| 20260506200200 | 20 | 274 | 1.6 | 11.3 | 0.00 | 0.20 | 0.20 | 100 | 1007.0 |
| 20260506195547 | 20 | 212 | 3.2 | 17.7 | 0.00 | 0.20 | 0.20 | 100 | 1007.2 |
| 20260506195008 | 20 | 273 | 3.2 | 9.7 | 0.00 | 0.20 | 0.20 | 100 | 1007.3 |
| 20260506194407 | 20 | 271 | 3.2 | 19.3 | 0.00 | 0.20 | 0.20 | 100 | 1007.5 |
| 20260506193829 | 20 | 248 | 1.6 | 16.1 | 0.00 | 0.20 | 0.20 | 100 | 1007.6 |
| 20260506193257 | 20 | 157 | 1.6 | 9.7 | 0.00 | 0.20 | 0.20 | 100 | 1007.5 |
| 20260506192642 | 20 | 259 | 3.2 | 16.1 | 0.00 | 0.20 | 0.20 | 100 | 1007.7 |
| 20260506192100 | 20 | 242 | 1.6 | 16.1 | 0.00 | 0.20 | 0.20 | 100 | 1007.6 |
| 20260506191504 | 20 | 264 | 1.6 | 17.7 | 0.00 | 0.20 | 0.20 | 100 | 1007.5 |
| 20260506191257 | 20 | 193 | 1.6 | 17.7 | 0.00 | 0.20 | 0.20 | 100 | 1007.5 |
| 20260506191100 | 20 | 193 | 1.6 | 17.7 | 0.00 | 0.20 | 0.20 | 100 | 1007.5 |
| 20260506190355 | 20 | 250 | 1.6 | 14.5 | 0.00 | 0.20 | 0.20 | 100 | 1007.8 |
| 20260506185835 | 20 | 263 | 1.6 | 17.7 | 0.00 | 0.20 | 0.20 | 100 | 1007.6 |
| 20260506185307 | 20 | 226 | 1.6 | 17.7 | 0.00 | 0.20 | 0.20 | 100 | 1007.5 |
| 20260506184740 | 20 | 211 | 3.2 | 17.7 | 0.00 | 0.20 | 0.20 | 100 | 1007.7 |
| 20260506184436 | 20 | 190 | 4.8 | 17.7 | 0.00 | 0.20 | 0.20 | 100 | 1007.9 |
| 20260506183910 | 20 | 247 | 1.6 | 14.5 | 0.00 | 0.20 | 0.20 | 100 | 1008.2 |
| 20260506183350 | 21 | 200 | 0.0 | 9.7 | 0.00 | 0.20 | 0.20 | 100 | 1008.2 |
| 20260506182605 | 21 | 181 | 1.6 | 14.5 | 0.00 | 0.20 | 0.20 | 100 | 1008.1 |
| 20260506182044 | 21 | 150 | 1.6 | 12.9 | 0.00 | 0.20 | 0.20 | 100 | 1007.9 |
| 20260506181738 | 21 | 187 | 1.6 | 12.9 | 0.00 | 0.20 | 0.20 | 100 | 1008.2 |
| 20260506180945 | 21 | 198 | 3.2 | 14.5 | 0.00 | 0.20 | 0.20 | 100 | 1008.3 |
| 20260506180411 | 20 | 236 | 1.6 | 14.5 | 0.00 | 0.20 | 0.20 | 100 | 1008.4 |
| 20260506175843 | 20 | 203 | 1.6 | 12.9 | 0.00 | 0.20 | 0.20 | 100 | 1008.4 |
| 20260506175313 | 20 | 271 | 1.6 | 11.3 | 0.00 | 0.20 | 0.20 | 100 | 1008.7 |
| 20260506174748 | 20 | 173 | 1.6 | 16.1 | 0.00 | 0.20 | 0.20 | 100 | 1008.6 |
| 20260506174225 | 20 | 278 | 1.6 | 16.1 | 0.00 | 0.20 | 0.20 | 100 | 1008.6 |
| 20260506173703 | 20 | 188 | 1.6 | 12.9 | 0.00 | 0.20 | 0.20 | 100 | 1008.5 |
| 20260506173131 | 20 | 197 | 1.6 | 17.7 | 0.00 | 0.20 | 0.20 | 100 | 1008.6 |
| 20260506172608 | 20 | 160 | 1.6 | 17.7 | 0.00 | 0.20 | 0.20 | 100 | 1008.7 |
| 20260506172046 | 20 | 218 | 1.6 | 16.1 | 0.03 | 0.20 | 0.20 | 100 | 1008.6 |
| 20260506171513 | 20 | 165 | 1.6 | 16.1 | 0.03 | 0.20 | 0.20 | 100 | 1008.7 |
| 20260506170944 | 19 | 182 | 1.6 | 14.5 | 0.05 | 0.20 | 0.20 | 100 | 1008.7 |
| 20260506170420 | 19 | 149 | 1.6 | 11.3 | 0.05 | 0.20 | 0.20 | 100 | 1008.6 |
| 20260506165856 | 19 | 208 | 1.6 | 11.3 | 0.05 | 0.20 | 0.20 | 100 | 1008.9 |
| 20260506165319 | 19 | 171 | 0.0 | 12.9 | 0.10 | 0.20 | 0.20 | 100 | 1008.8 |
| 20260506165023 | 18 | 228 | 0.0 | 12.9 | 0.10 | 0.20 | 0.20 | 100 | 1009.0 |
| 20260506164236 | 19 | 146 | 0.0 | 9.7 | 0.13 | 0.20 | 0.20 | 100 | 1008.9 |
| 20260506164112 | 18 | 200 | 1.6 | 16.1 | 0.15 | 0.20 | 0.20 | 100 | 1008.7 |
| 20260506163738 | 19 | 205 | 1.6 | 16.1 | 0.15 | 0.20 | 0.20 | 100 | 1008.9 |
| 20260506162614 | 18 | 238 | 0.0 | 9.7 | 0.15 | 0.20 | 0.20 | 100 | 1008.8 |
| 20260506162059 | 18 | 177 | 0.0 | 17.7 | 0.13 | 0.18 | 0.18 | 100 | 1008.8 |
| 20260506161525 | 18 | 146 | 1.6 | 17.7 | 0.13 | 0.18 | 0.18 | 100 | 1009.0 |
| 20260506161454 | 19 | 213 | 1.6 | 1.6 | 0.10 | 0.15 | 0.15 | 100 | 1009.0 |
| 20260506160702 | 18 | 235 | 1.6 | 11.3 | 0.10 | 0.15 | 0.15 | 100 | 1009.3 |
| 20260506155922 | 19 | 167 | 1.6 | 8.0 | 0.10 | 0.15 | 0.15 | 100 | 1009.4 |
| 20260506155825 | 19 | 187 | 1.6 | 11.3 | 0.05 | 0.10 | 0.10 | 100 | 1009.6 |
| 20260506154806 | 19 | 190 | 1.6 | 8.0 | 0.08 | 0.10 | 0.10 | 100 | 1009.6 |
| 20260506154242 | 19 | 225 | 0.0 | 8.0 | 0.05 | 0.08 | 0.08 | 100 | 1009.7 |
| 20260506153716 | 18 | 183 | 1.6 | 12.9 | 0.03 | 0.05 | 0.05 | 100 | 1009.7 |
| 20260506153200 | 18 | 183 | 1.6 | 12.9 | 0.05 | 0.05 | 0.05 | 100 | 1009.8 |
| 20260506152701 | 18 | 188 | 0.0 | 11.3 | 0.05 | 0.05 | 0.05 | 100 | 1009.9 |
| 20260506152153 | 18 | 147 | 0.0 | 11.3 | 0.05 | 0.05 | 0.05 | 100 | 1010.0 |
| 20260506151606 | 19 | 162 | 1.6 | 14.5 | 0.05 | 0.05 | 0.05 | 100 | 1010.0 |
| 20260506151359 | 19 | 195 | 1.6 | 9.7 | 0.05 | 0.05 | 0.05 | 100 | 1010.0 |
| 20260506150305 | 19 | 191 | 0.0 | 8.0 | 0.05 | 0.05 | 0.05 | 100 | 1010.0 |
| 20260506150241 | 19 | 201 | 0.0 | 0.0 | 0.05 | 0.05 | 0.05 | 100 | 1009.9 |
| 20260506145147 | 19 | 201 | 0.0 | 0.0 | 0.03 | 0.03 | 0.03 | 100 | 1010.1 |
| 20260506144608 | 19 | 201 | 0.0 | 8.0 | 0.03 | 0.03 | 0.03 | 100 | 1010.0 |
| 20260506144535 | 18 | 201 | 0.0 | 8.0 | 0.03 | 0.03 | 0.03 | 100 | 1009.9 |
| 20260506143540 | 18 | 202 | 0.0 | 6.4 | 0.00 | 0.00 | 0.00 | 8 | 1010.0 |
| 20260506143122 | 18 | 202 | 0.0 | 6.4 | 0.00 | 0.00 | 0.00 | 17 | 1009.9 |
| 20260506142617 | 19 | 202 | 0.0 | 11.3 | 0.00 | 0.00 | 0.00 | 24 | 1009.8 |
| 20260506141940 | 19 | 202 | 1.6 | 3.2 | 0.00 | 0.00 | 0.00 | 32 | 1009.9 |
| 20260506141739 | 19 | 186 | 1.6 | 11.3 | 0.00 | 0.00 | 0.00 | 36 | 1009.6 |
| 20260506141127 | 19 | 221 | 1.6 | 6.4 | 0.00 | 0.00 | 0.00 | 38 | 1009.8 |
| 20260506140931 | 19 | 221 | 1.6 | 6.4 | 0.00 | 0.00 | 0.00 | 38 | 1009.8 |
| 20260506140257 | 19 | 228 | 1.6 | 17.7 | 0.00 | 0.00 | 0.00 | 38 | 1009.8 |
| 20260506140011 | 20 | 229 | 1.6 | 16.1 | 0.00 | 0.00 | 0.00 | 38 | 1009.9 |
| 20260506140000 | 20 | 197 | 1.6 | 17.7 | 0.00 | 0.00 | 0.00 | 38 | 1009.8 |
| 20260506134402 | 20 | 188 | 1.6 | 16.1 | 0.00 | 0.00 | 0.00 | 38 | 1009.8 |
| 20260506133739 | 19 | 182 | 1.6 | 22.5 | 0.00 | 0.00 | 0.00 | 38 | 1009.7 |
| 20260506133200 | 19 | 168 | 1.6 | 22.5 | 0.00 | 0.00 | 0.00 | 38 | 1009.7 |
| 20260506132648 | 19 | 181 | 1.6 | 12.9 | 0.00 | 0.00 | 0.00 | 38 | 1009.6 |
| 20260506132037 | 19 | 159 | 1.6 | 12.9 | 0.00 | 0.00 | 0.00 | 37 | 1009.7 |
| 20260506131813 | 19 | 53 | 3.2 | 14.5 | 0.00 | 0.00 | 0.00 | 37 | 1009.5 |
| 20260506131743 | 19 | 167 | 1.6 | 11.3 | 0.00 | 0.00 | 0.00 | 36 | 1009.5 |
| 20260506131131 | 19 | 132 | 3.2 | 12.9 | 0.00 | 0.00 | 0.00 | 37 | 1009.5 |
| 20260506125752 | 19 | 171 | 1.6 | 9.7 | 0.00 | 0.00 | 0.00 | 36 | 1009.6 |
| 20260506125205 | 19 | 172 | 1.6 | 8.0 | 0.00 | 0.00 | 0.00 | 36 | 1009.5 |
| 20260506124501 | 19 | 261 | 1.6 | 12.9 | 0.00 | 0.00 | 0.00 | 37 | 1009.4 |
| 20260506123432 | 19 | 200 | 1.6 | 17.7 | 0.00 | 0.00 | 0.00 | 36 | 1009.5 |
| 20260506122900 | 19 | 242 | 1.6 | 17.7 | 0.00 | 0.00 | 0.00 | 36 | 1009.7 |
| 20260506122400 | 18 | 224 | 1.6 | 24.1 | 0.00 | 0.00 | 0.00 | 36 | 1009.9 |
| 20260506121906 | 18 | 134 | 1.6 | 14.5 | 0.00 | 0.00 | 0.00 | 36 | 1010.0 |
| 20260506121851 | 18 | 284 | 1.6 | 16.1 | 0.00 | 0.00 | 0.00 | 36 | 1009.9 |
| 20260506121830 | 18 | 232 | 1.6 | 24.1 | 0.00 | 0.00 | 0.00 | 36 | 1009.9 |
| 20260506120455 | 18 | 130 | 1.6 | 14.5 | 0.00 | 0.00 | 0.00 | 36 | 1010.0 |
| 20260506120248 | 18 | 130 | 1.6 | 14.5 | 0.00 | 0.00 | 0.00 | 36 | 1010.0 |
| 20260506115521 | 18 | 180 | 1.6 | 9.7 | 0.00 | 0.00 | 0.00 | 36 | 1010.0 |
| 20260506114930 | 18 | 168 | 1.6 | 14.5 | 0.00 | 0.00 | 0.00 | 36 | 1010.1 |
| 20260506114343 | 18 | 180 | 1.6 | 14.5 | 0.00 | 0.00 | 0.00 | 35 | 1009.9 |
| 20260506113756 | 18 | 162 | 1.6 | 16.1 | 0.00 | 0.00 | 0.00 | 34 | 1009.9 |
| 20260506113545 | 18 | 204 | 0.0 | 16.1 | 0.00 | 0.00 | 0.00 | 33 | 1009.8 |
| 20260506112617 | 18 | 172 | 0.0 | 11.3 | 0.00 | 0.00 | 0.00 | 33 | 1009.8 |
| 20260506112412 | 18 | 227 | 1.6 | 12.9 | 0.00 | 0.00 | 0.00 | 33 | 1009.8 |
| 20260506112153 | 18 | 227 | 1.6 | 12.9 | 0.00 | 0.00 | 0.00 | 33 | 1009.8 |
| 20260506111549 | 17 | 198 | 3.2 | 12.9 | 0.00 | 0.00 | 0.00 | 34 | 1009.9 |
| 20260506111117 | 17 | 156 | 1.6 | 16.1 | 0.00 | 0.00 | 0.00 | 34 | 1009.7 |
| 20260506111051 | 17 | 233 | 0.0 | 16.1 | 0.00 | 0.00 | 0.00 | 34 | 1009.6 |
| 20260506111024 | 17 | 165 | 1.6 | 11.3 | 0.00 | 0.00 | 0.00 | 34 | 1009.7 |
| 20260506105447 | 17 | 152 | 1.6 | 19.3 | 0.00 | 0.00 | 0.00 | 33 | 1009.7 |
| 20260506105246 | 17 | 194 | 1.6 | 19.3 | 0.00 | 0.00 | 0.00 | 33 | 1009.7 |
| 20260506104730 | 17 | 182 | 1.6 | 19.3 | 0.00 | 0.00 | 0.00 | 33 | 1009.6 |
| 20260506103822 | 17 | 179 | 3.2 | 8.0 | 0.00 | 0.00 | 0.00 | 32 | 1009.5 |
| 20260506103758 | 17 | 175 | 3.2 | 19.3 | 0.00 | 0.00 | 0.00 | 32 | 1009.4 |
| 20260506102543 | 17 | 188 | 1.6 | 14.5 | 0.00 | 0.00 | 0.00 | 31 | 1009.6 |
| 20260506102519 | 17 | 173 | 1.6 | 20.9 | 0.00 | 0.00 | 0.00 | 31 | 1009.5 |
| 20260506101315 | 17 | 234 | 1.6 | 14.5 | 0.00 | 0.00 | 0.00 | 30 | 1009.5 |
| 20260506100720 | 17 | 186 | 1.6 | 19.3 | 0.00 | 0.00 | 0.00 | 30 | 1009.6 |
| 20260506100234 | 17 | 179 | 1.6 | 19.3 | 0.00 | 0.00 | 0.00 | 29 | 1009.5 |
| 20260506095917 | 17 | 184 | 1.6 | 17.7 | 0.00 | 0.00 | 0.00 | 29 | 1009.6 |
| 20260506095105 | 17 | 252 | 1.6 | 11.3 | 0.00 | 0.00 | 0.00 | 28 | 1009.5 |
| 20260506094459 | 17 | 213 | 0.0 | 9.7 | 0.00 | 0.00 | 0.00 | 27 | 1009.6 |
| 20260506093922 | 17 | 216 | 0.0 | 9.7 | 0.00 | 0.00 | 0.00 | 27 | 1009.5 |
| 20260506093721 | 17 | 256 | 0.0 | 16.1 | 0.00 | 0.00 | 0.00 | 26 | 1009.6 |
| 20260506092731 | 17 | 161 | 1.6 | 16.1 | 0.00 | 0.00 | 0.00 | 26 | 1009.4 |
| 20260506092138 | 17 | 203 | 1.6 | 19.3 | 0.00 | 0.00 | 0.00 | 26 | 1009.5 |
| 20260506091549 | 17 | 176 | 1.6 | 19.3 | 0.00 | 0.00 | 0.00 | 26 | 1009.5 |
| 20260506091017 | 17 | 210 | 1.6 | 19.3 | 0.00 | 0.00 | 0.00 | 26 | 1009.5 |
| 20260506090950 | 17 | 187 | 1.6 | 19.3 | 0.00 | 0.00 | 0.00 | 26 | 1009.6 |
| 20260506085926 | 17 | 155 | 0.0 | 16.1 | 0.00 | 0.00 | 0.00 | 26 | 1009.6 |
| 20260506085315 | 17 | 186 | 1.6 | 24.1 | 0.00 | 0.00 | 0.00 | 26 | 1009.6 |
| 20260506084744 | 17 | 195 | 3.2 | 24.1 | 0.00 | 0.00 | 0.00 | 27 | 1009.6 |
| 20260506084212 | 17 | 219 | 1.6 | 20.9 | 0.00 | 0.00 | 0.00 | 27 | 1009.6 |
| 20260506083629 | 17 | 169 | 0.0 | 11.3 | 0.00 | 0.00 | 0.00 | 27 | 1009.7 |
| 20260506083047 | 18 | 194 | 1.6 | 9.7 | 0.00 | 0.00 | 0.00 | 28 | 1009.6 |
| 20260506082512 | 18 | 175 | 1.6 | 14.5 | 0.00 | 0.00 | 0.00 | 28 | 1009.5 |
| 20260506081942 | 18 | 175 | 1.6 | 14.5 | 0.00 | 0.00 | 0.00 | 29 | 1009.6 |
| 20260506081349 | 18 | 171 | 1.6 | 19.3 | 0.00 | 0.00 | 0.00 | 30 | 1009.7 |
| 20260506080824 | 18 | 172 | 1.6 | 3.2 | 0.00 | 0.00 | 0.00 | 30 | 1009.6 |
| 20260506080312 | 18 | 235 | 1.6 | 19.3 | 0.00 | 0.00 | 0.00 | 31 | 1009.7 |